Volver al catálogo

FORESAIL-1 PRIME

ActivoRadioaficionadoSSO
NORAD 66778·PAYLOAD·🇫🇮 Finland

Lanzado Nov 28, 2025 desde Vandenberg Space Force Base

Loading…

Próximos Pases (próximas 24 horas)

TLE

ActualizadoSource: Space-Track

Época: Sep 14, 2026, 10:51 UTC

1 66778U 25276DS  26257.45215963  .00003319  00000-0  16027-3 0  9998
2 66778  97.4123 329.0921 0003298 131.5374 228.6144 15.19339774 43951

Sigue FORESAIL-1 PRIME en tiempo real con AllMySat

Download on the App Store